Regional Weather Roundup
Issued by NWS

Home | Current Version | Previous Version | Text Only | Print | Product List | Glossary Off
Versions: 1 2 3 4 5 6 7 8 9 10 11 12 13 14 15 16 17 18 19 20 21 22 23 24 25 26 27 28 29 30 31 32 33 34 35 36 37 38 39 40 41 42 43 44 45 46 47 48 49 50

000
ASUS43 KLOT 040710
RWRIL

ILLINOIS REGIONAL WEATHER ROUNDUP
NATIONAL WEATHER SERVICE CHICAGO/ROMEOVILLE IL
100 AM CST WED MAR 04 2015

NOTE: "FAIR" INDICATES FEW OR NO CLOUDS BELOW 12,000 FEET WITH NO
SIGNIFICANT WEATHER AND/OR OBSTRUCTIONS TO VISIBILITY.

* THESE STATIONS ARE NOT UNDER NWS QUALITY CONTROL. THEY ALSO MAY NOT
  REPORT WEATHER SUCH AS PRECIPITATION OR FOG.

ILZ001-002-007-009-015-016-024-040800-
NORTHWEST ILLINOIS

CITY           SKY/WX    TMP DP  RH WIND       PRES   REMARKS
MOLINE         PTCLDY    18  10  71 NW17G25   29.99R WCI   3
STERLING*      PTCLDY    21  14  73 NW14      29.94S WCI   8
SAVANNA*       PTCLDY    18  10  70 W10       29.96R WCI   6
$$

ILZ003-004-008-010-011-017-018-040800-
NORTH CENTRAL ILLINOIS

CITY           SKY/WX    TMP DP  RH WIND       PRES   REMARKS
ROCKFORD       MOCLDY    23  15  71 NW15      29.91R WCI  10
FREEPORT*      PTCLDY    18  12  77 W15G22    29.94R WCI   4
ROCHELLE*      MOCLDY    25  21  85 W12       29.91R WCI  15
DE KALB*       CLOUDY    27  22  83 W14       29.89R WCI  15
PERU*          CLOUDY    27  22  80 NW16G24   29.94R WCI  15
$$

ILZ005-006-012>014-019>023-040800-
NORTHEAST ILLINOIS

CITY           SKY/WX    TMP DP  RH WIND       PRES   REMARKS
CHICAGO-OHARE  CLOUDY    30  23  75 W12       29.87R WCI  20
CHICAGO-MIDWAY CLOUDY    33  24  69 W10       29.88R WCI  25
AURORA         CLOUDY    30  24  78 W15       29.89R WCI  19
LANSING*       CLOUDY    32  24  72 NW7       29.88S WCI  26
JOLIET*        CLOUDY    31  25  79 W6        29.90R WCI  25
WAUKEGAN       CLOUDY    30  24  78 W6        29.85R WCI  24
DUPAGE AIRPORT CLOUDY    30  23  75 W13       29.87R WCI  20
KANKAKEE*      CLOUDY    32  26  81 W6        29.90S WCI  26
WHEELING       CLOUDY    31  23  72 W12       29.88R WCI  22
MORRIS*        CLOUDY    31  28  88 NW17      29.90R WCI  19
ROMEOVILLE*    CLOUDY    31  26  81 NW7       29.89R WCI  24
NORTHERLY ISL    N/A     32  24  73 W5          N/A  WCI  27
$$

LMZ740>746-040800-
SOUTHERN LAKE MICHIGAN

STATION/POSITION SKY/WX   TEMP    WIND        PRES    VSBY  WAVE
                          AIR SEA DIR/SP/G                  HT/PER
                          (F)     (DEG/KT/KT) (MB)    (MI)  (FT/S)
WAUKEGAN HARBOR            31                   N/A
HARRISON CRIB              32     280/ 13/ 15   N/A
BURNHAM HARBOR             32     240/  4/ 11   N/A
CALUMET HARBOR             32     280/  6/ 10 1010.5F
MICHIGAN CITY              31     250/  9/ 10   N/A
$$

ILZ025>027-034>036-040-047-049-050-058-095>099-040800-
WEST-CENTRAL ILLINOIS

CITY           SKY/WX    TMP DP  RH WIND       PRES   REMARKS
QUINCY         MOCLDY    26  17  68 N16       30.00R WCI  14
GALESBURG*     PTCLDY    22  15  75 NW13      29.97R WCI   9
MACOMB*        PTCLDY    23  18  81 NW17      30.01R WCI   9
JACKSONVILLE*  CLOUDY    33  27  79 NW9       29.96R WCI  25
PITTSFIELD*    CLOUDY    32  26  80 NW10      30.00R WCI  23
$$

ILZ028>032-037-038-041>044-048-051>054-059>061-040800-
CENTRAL ILLINOIS

CITY           SKY/WX    TMP DP  RH WIND       PRES   REMARKS
PONTIAC        CLOUDY    31  28  87 NW14      29.92R WCI  21
BLOOMINGTON    CLOUDY    31  27  85 NW14      29.93R WCI  21
DECATUR        CLOUDY    34  27  75 NW7       29.93S WCI  28
PEORIA         CLOUDY    29  22  75 NW10G18   29.97R WCI  20
LACON*         CLOUDY    26  20  78 NW13      29.95R WCI  15
LINCOLN*       CLOUDY    34  29  83 NW7       29.96R WCI  28
SPRINGFIELD    CLOUDY    34  27  75 NW10      29.96R WCI  26
TAYLORVILLE    CLOUDY    32  30  93 NW6       29.95R WCI  26
$$

ILZ033-039-045-046-055>057-062-063-040800-
EAST-CENTRAL ILLINOIS

CITY           SKY/WX    TMP DP  RH WIND       PRES   REMARKS
CHAMPAIGN      CLOUDY    33  29  85 NW6       29.91F WCI  28
DANVILLE*      CLOUDY    32  28  86 NW6       29.88F WCI  26
RANTOUL*       CLOUDY    33  30  87 NW6       29.90F WCI  28
MATTOON        CLOUDY    33  31  92 NW7       29.92R WCI  27
PARIS*         CLOUDY    34  33  95 CALM      29.92R
$$

ILZ079-100>102-040800-
SOUTHWEST ILLINOIS

CITY           SKY/WX    TMP DP  RH WIND       PRES   REMARKS
ALTON          LGT RAIN  34  32  92 CALM      29.97R
BELLEVILLE     LGT RAIN  34  34 100 N6        29.94R WCI  29
CAHOKIA*       LGT RAIN  35  32  88 N8        29.96S WCI  29
SPARTA*        RAIN      35  35  97 NE6       29.93S WCI  30
$$

ILZ064>066-069>071-074>076-080>082-084>086-088>090-092>094-040800-
SOUTH-CENTRAL ILLINOIS

CITY           SKY/WX    TMP DP  RH WIND       PRES   REMARKS
CARBONDALE     LGT RAIN  41  39  93 N6        29.94R FOG
CAIRO*         RAIN     N/A N/A N/A N6        29.91R
EFFINGHAM*     LGT RAIN  34  32  92 CALM      29.94F
MARION         LGT RAIN  43  41  93 N6        29.92S
MT. VERNON     CLOUDY    37  34  87 N6        29.92F WCI  33
CENTRALIA*     LGT RAIN  35  33  94 N7        29.92F WCI  29
SALEM*         RAIN      36  34  92 N7        29.92F WCI  31
METROPOLIS*    RAIN      45  45 100 N8        29.90R
$$

ILZ067-068-072-073-078-083-087-091-040800-
SOUTHEAST ILLINOIS

CITY           SKY/WX    TMP DP  RH WIND       PRES   REMARKS
LAWRENCEVILLE  LGT RAIN  35  33  92 N15       29.94R WCI  25
FLORA*         LGT RAIN  35  35 100 N5        29.94F WCI  31
FAIRFIELD*     RAIN      38  37  99 N8        29.90F WCI  32
HARRISBURG*    RAIN      41  41 100 N6        29.93F
ROBINSON*      LGT RAIN  34  34  99 N3        29.94S
CARMI*         LGT RAIN  41  41 100 N5        29.92S
$$

ABBREVIATIONS USED IN REMARKS
   TC - TEMPERATURE IN CELSIUS
  WCI - WIND CHILL INDEX
   HX - HEAT INDEX
  VSB - VISIBILITY
$$




USA.gov is the U.S. government's official web portal to all federal, state and local government web resources and services.